Location: Cincinnati Observatory Center
(39.1389°N, 84.4225°W)
Time: 17:18:07
(UTC-04:00)

Daily predictions for brighter satellites

Satellite Brightness Start Highest point End
(mag) Time Altitude Azimuth Time Altitude Azimuth Time Altitude Azimuth
Cosmos 1538 Rocket 4.4 21:34:11 10° N 21:39:24 52° ENE 21:44:36 10° SE
SJ-11-01 4.4 21:35:16 10° SSE 21:39:55 64° ENE 21:44:36 10° N
Cosmos 2322 Rocket 2.3 21:34:25 10° NNW 21:40:00 63° ENE 21:45:33 10° SSE
SL-16 R/B 2.3 21:43:37 10° NNW 21:49:18 70° ENE 21:54:56 10° SSE
Cosmos 1980 Rocket 3.4 21:44:52 10° NW 21:50:09 41° WSW 21:55:26 10° S
Cosmos 2360 Rocket 3.4 21:45:51 10° N 21:50:43 29° ENE 21:55:34 10° ESE
Cosmos 1515 Rocket 3.9 21:47:53 10° N 21:52:13 49° E 21:56:29 10° SSE
Cosmos 1939 Rocket 3.0 21:49:14 10° SSE 21:53:08 60° ENE 21:57:00 10° N
AVUM R/B 4.0 21:52:34 10° SSE 21:54:12 18° ESE 21:55:59 10° ENE
Cosmos 1908 4.3 21:50:49 10° NNE 21:54:17 30° ENE 21:57:31 11° SE
In-Cosmos 22 4.3 21:50:05 10° S 21:55:50 78° E 22:01:36 10° NNE
Cosmos 2266 Rocket 4.4 21:51:17 10° SSE 21:57:15 46° E 22:03:09 10° NNE
Cosmos 1553 Rocket 4.1 21:52:51 10° N 21:59:18 82° E 22:05:37 10° S
Nimbus 7 Rocket 4.4 21:54:03 10° NNE 21:59:52 63° ESE 22:05:39 10° S
USA 229 DEB 3.7 21:55:59 10° SSW 22:02:49 68° ESE 22:09:46 10° NE
USA 229 3.7 21:56:06 10° SSW 22:02:56 68° ESE 22:09:52 10° NE
Cosmos 773 Rocket 4.3 22:01:10 10° N 22:06:14 51° ENE 22:10:40 13° SE
Cosmos 2151 3.6 22:10:13 12° SSE 22:13:45 37° E 22:17:39 10° NNE
Cosmos 1674 2.8 22:10:13 10° S 22:13:55 53° E 22:17:42 10° NNE
Terra 3.9 22:13:15 10° E 22:15:17 13° ENE 22:17:20 10° NE
CZ-4 SHROUD 3.3 22:14:01 16° SSE 22:16:17 57° ENE 22:19:23 10° N
Cosmos 1437 Rocket 2.6 22:13:37 10° N 22:17:26 74° E 22:20:37 14° SSE
Cosmos 1833 4.2 22:11:54 10° S 22:17:33 63° ESE 22:23:10 10° NNE
Cosmos 968 Rocket 4.2 22:13:59 10° SSW 22:19:02 56° WNW 22:24:12 10° N
GPS 2-04 Rocket1 4.2 22:18:00 10° W 22:21:41 27° SSW 22:23:58 17° SSE
Cosmos 1151 Rocket 3.1 22:17:59 10° N 22:22:15 61° E 22:25:32 17° SSE
Cosmos 1300 4.3 22:20:46 10° NNE 22:23:39 20° ENE 22:25:08 16° ESE
COSMOS 2428 3.8 22:28:02 10° N 22:33:02 31° ENE 22:36:34 17° ESE
Envisat 3.5 22:30:46 10° S 22:35:45 59° W 22:40:47 10° NNW
H-2A R/B 3.3 22:31:49 10° S 22:36:04 40° W 22:40:21 10° NNW
Cosmos 1328 3.8 22:34:24 19° S 22:37:07 59° E 22:41:01 10° NNE
Cosmos 1707 Rocket 4.4 22:34:51 10° NNE 22:38:49 33° ENE 22:40:39 24° ESE
Cosmos 1666 Rocket 4.4 22:39:51 24° SE 22:41:33 33° E 22:45:31 10° NNE
DELTA 2 R/B (1) 3.5 22:36:13 10° W 22:41:47 84° SSW 22:45:57 18° ESE
Cosmos 2112 Rocket 4.2 22:39:37 10° N 22:44:48 60° ENE 22:47:47 25° SE
Cosmos 2058 3.1 22:42:56 25° SSE 22:45:03 51° E 22:49:02 10° NNE
ATLAS 2AS CENTAUR R/B 4.4 22:45:17 15° ESE 22:45:52 15° ESE 22:49:51 10° ENE
YAOGAN 6 2.6 22:46:03 26° S 22:48:02 83° W 22:51:41 10° NNW
SPOT 5 3.4 22:45:54 14° S 22:49:36 51° W 22:54:12 10° NNW
Cosmos 405 3.8 22:50:06 10° NNW 22:53:37 50° W 22:55:46 21° SSW
Cosmos 2219 Rocket 3.7 22:49:17 10° N 22:53:40 23° NE 22:56:41 15° E
Cosmos 1437 3.1 22:52:16 19° SSW 22:54:28 63° W 22:57:44 10° N
Cosmos 1937 Rocket 4.5 22:56:44 26° ESE 22:57:43 27° E 23:02:04 10° NE
ARGOS 3.1 22:55:50 25° SSE 22:59:03 81° ENE 23:04:29 10° N
H-2A R/B 2.7 23:00:41 27° SE 23:03:05 44° ENE 23:08:12 10° N
SL-14 R/B 3.3 23:05:20 41° SSE 23:06:26 60° E 23:10:22 10° NNE
Cosmos 1703 4.1 23:07:24 32° E 23:07:33 32° E 23:11:04 10° NNE
IGS 5A 4.4 23:07:26 29° E 23:08:25 33° ENE 23:12:12 10° N
Cosmos 2219 3.2 23:02:46 10° SSW 23:08:32 89° E 23:14:19 10° NNE
Meteor 1-27 4.2 23:04:04 10° N 23:09:47 75° E 23:12:32 31° SSE
SL-08 RB Rocket 3.6 23:08:39 35° SSE 23:10:32 89° ENE 23:15:03 10° NNW
NOSS 3-1 (C) 3.3 23:05:05 10° SSW 23:10:49 69° ESE 23:17:11 10° NE
Cosmos 1271 Rocket 3.4 23:10:54 10° N 23:14:29 37° ENE 23:14:50 36° E
SPOT 1/Viking Rocket 3.9 23:12:05 24° S 23:15:07 59° W 23:20:13 10° NNW
Cosmos 2242 Rocket 3.9 23:11:07 10° N 23:15:28 50° E 23:16:33 40° ESE
DELTA 2 DEB (DPAF) 4.1 23:16:07 41° SSE 23:17:41 82° ENE 23:22:11 10° N
Cosmos 2322 4.1 23:12:21 10° NNW 23:17:57 58° WSW 23:20:54 28° S
Delta 2 Rocket 4.1 23:16:01 10° WSW 23:17:57 28° SW 23:17:57 28° SW
Cosmos 2237 Rocket 3.7 23:16:02 10° N 23:20:43 25° NE 23:23:15 19° E
Cosmos 1726 2.0 23:18:04 10° N 23:21:52 83° E 23:22:28 61° SSE
Cosmos 1680 Rocket 4.0 23:17:13 10° NNW 23:22:18 52° WSW 23:24:52 28° SSW
SAR-Lupe-2 4.1 23:22:48 43° E 23:22:57 43° ENE 23:26:22 10° N
Cosmos 2322 Rocket 4.5 23:20:04 10° WNW 23:23:25 16° W 23:26:46 10° SW
USA 245 4.3 23:26:25 22° WSW 23:26:34 23° W 23:28:41 10° NW
Iridium 2 3.7 23:28:43 59° ESE 23:28:51 59° E 23:32:39 10° NNE
Cosmos 2150 Rocket 4.0 23:31:21 29° SSW 23:34:15 88° ESE 23:39:45 10° NNE
Cosmos 2360 Rocket 3.1 23:29:33 10° NW 23:34:46 39° WSW 23:37:27 25° SSW
Cosmos 1898 Rocket 3.4 23:33:17 32° SSW 23:35:44 89° ESE 23:40:58 10° NNE
Landsat 7 3.9 23:35:02 42° S 23:36:33 70° WSW 23:41:18 10° NNW
Cosmos 1862 Rocket 4.2 23:33:01 10° N 23:37:05 37° ENE 23:37:19 37° E
CARTOSAT-1 3.4 23:37:19 59° SSE 23:38:08 89° ENE 23:42:28 10° NNW
DMSP B5D2-2 3.9 23:35:24 10° NNE 23:40:39 82° ESE 23:42:27 42° S
Cosmos 1633 Rocket 3.5 23:42:16 35° SW 23:43:52 56° W 23:48:11 10° N
Sich 1 3.7 23:42:32 32° SW 23:44:18 52° W 23:48:38 10° N
Cosmos 858 Rocket 4.4 23:42:00 34° SSW 23:44:19 84° WNW 23:49:33 10° NNE
Spot 4 3.8 23:44:36 55° SSE 23:45:36 78° ENE 23:50:28 10° N
Terra 1.9 23:51:23 52° SSW 23:52:25 70° WSW 23:57:10 10° NNW
Cosmos 292 Rocket 3.6 23:48:57 10° NNW 23:53:44 85° ENE 23:54:22 67° SSE
